DELTA 1 DEB, 10251

Orbit data source: Space-Track

DELTA 1 DEB, 10251 is space debris in LEO originally from a launch on Thu, 14 Jul 1977 UTC launched from the Air Force Eastern Test Range (AFETR). Debris objects in space refer to the collection of defunct objects orbiting the Earth. Examples of debris include non-operational satellites, rocket bodies, and fragments generated from explosions, collisions, or faulty payload assembly.

Loading next visibility...
Identifier
10251, 1977-065CC
Orbit
LEO
Country
Flag of USUS
Related business
Manufacturer
Unknown
Mission
Spacecraft
Bus & Motor
Unknown
Mass
Unknown
Launch date (UTC)
1977-07-14 (49 years ago)
Launch vehicle
Unknown
Launch site
Air Force Eastern Test Range (AFETR)
Object type
Payload
Rocket body
Debris
Shape & HBR
Unknown shape, 0.1 m
Radar Cross Section
Medium (>0.1 m² and <1 m²)

Expand to show TLE details & history
Last TLE update: 9 hours ago

TLE from 9 hours ago
0 DELTA 1 DEB
1 10251U 77065CC  26263.04071947  .00002829  00000-0  36665-3 0  9995
2 10251  28.9762  23.8333 0665743 212.7820 142.9707 13.85894541430432
Epoch: 2026-09-20T00:58Z
TLE epoch observation values (Epoch: 2026-09-20T00:58:38.162Z)
Latitude
0.00001°
Longitude
10.23371°
Altitude
1,341.323 km
Speed
6.991 km/s
True Right ascension
01h 35m 19s
True Declination
0° 00' 00"
Sunlit
Object was in full shadow at epoch
Visualization orbit readout
Latitude
Unknown
Longitude
Unknown
Altitude
Unknown
Speed
Unknown
Apparent Right ascension
Unknown
Apparent Declination
Unknown
Sunlit
N/A
Visualization observer readout
Local Sidereal Time
02:41:30
Azimuth
Unknown
Elevation
Unknown
Doppler factor
Unknown
Orbital elements
Apogee altitude
1,434.649 km
Perigee altitude
459.319 km
Semi-major axis
7,325.121 km
Eccentricity
0.06657
Inclination
28.9762°
RAAN
23.8333°
Arg. of periapsis
212.782°
True anomaly
147.27411°
Mean anomaly
142.9707°
Eccentric anomaly
145.15036°
Mean motion
3.46195 °/min
Orbital period
103.99 mins
BSTAR
0.00036665
Loading maneuver chart data...
Computing Atmospheric mass density...
Loading historical data...
Loading historical data...
Loading historical data...
Loading historical data...
Loading historical data...
Loading historical data...
Loading historical data...

Documentation

Showing up to 5 results
|